カタログに戻る

SCOUT G-1 DEB

運用中PO
NORAD 16020·DEBRIS·🇺🇸 United States

打ち上げ Aug 3, 1985 から Vandenberg Space Force Base

Loading…

次のパス (今後24時間)

TLE

最新Source: Space-Track

元期: Sep 14, 2026, 07:22 UTC

1 16020U 85066F   26257.30742154  .00000060  00000-0  87052-4 0  9994
2 16020  90.2266  13.6055 0141107  51.5295 337.4984 13.41062956  7504

AllMySatでSCOUT G-1 DEBをリアルタイム追跡

Download on the App Store